Location: Bremen
(53.0793°N, 8.8017°E)
Time: 22:21:18
(UTC+01:00)

S-56A Canister/Altair - Pass Details

Date: 08 December 2021
Orbit: 634 x 2499 km, 38.9° (Epoch: 26 January)

Event Time Altitude Azimuth Distance (km) Brightness Sun altitude
Rises 21:23:58 0° 203° (SSW) 5,895 12.0 -45.5°
Enters shadow 21:27:41 - 195° (SSW) 5,045 11.6 -46.0°
Reaches altitude 10° 21:29:42 10° 188° (S) 4,616 - -46.3°
Maximum altitude 21:37:01 18° 152° (SSE) 3,516 - -47.2°
Drops below altitude 10° 21:43:02 10° 113° (ESE) 3,683 - -48.0°
Sets 21:46:50 0° 96° (E) 4,337 - -48.5°
